AAL2112 KMEM-KLIT

Flight info

Callsign AAL2112
Flight time 0h 26m
Altitude 20000
Route CHLDR5 ANSWA
Aircraft B77W/H-SDE1E2E3FGHIJ2J3J4J5M1RWXY/LB1D1

Departure

Time 2026-05-08 01:10
Airport Memphis International Airport (KMEM)

Arrival

Time 2026-05-08 01:36
Airport Bill & Hillary Clinton National Airport/Adams Field (KLIT)
Time Latitude Longitude Altitude Speed Heading
2026-05-08 01:01 35.04082 -89.98091 335 ft 0 kts 44°
2026-05-08 01:03 35.04082 -89.98092 335 ft 0 kts 44°
2026-05-08 01:03 35.04066 -89.98117 325 ft 1 kts 73°
2026-05-08 01:04 35.04067 -89.98116 325 ft 0 kts 73°
2026-05-08 01:04 35.04070 -89.98146 332 ft 6 kts 142°
2026-05-08 01:05 35.04044 -89.98129 330 ft 7 kts 134°
2026-05-08 01:05 35.04039 -89.98122 330 ft 1 kts 134°
2026-05-08 01:05 35.04028 -89.98108 331 ft 4 kts 134°
2026-05-08 01:05 35.04014 -89.98090 330 ft 2 kts 134°
2026-05-08 01:06 35.04000 -89.98074 332 ft 1 kts 136°
2026-05-08 01:06 35.03988 -89.98063 331 ft 11 kts 144°
2026-05-08 01:06 35.03892 -89.97938 332 ft 23 kts 84°
2026-05-08 01:06 35.03852 -89.97833 333 ft 12 kts 177°
2026-05-08 01:07 35.03729 -89.97832 332 ft 30 kts 179°
2026-05-08 01:07 35.03514 -89.97831 332 ft 23 kts 180°
2026-05-08 01:07 35.03346 -89.97827 330 ft 23 kts 178°
2026-05-08 01:07 35.03188 -89.97821 332 ft 23 kts 178°
2026-05-08 01:08 35.03021 -89.97815 332 ft 30 kts 178°
2026-05-08 01:08 35.02746 -89.97808 332 ft 30 kts 179°
2026-05-08 01:08 35.02560 -89.97806 335 ft 17 kts 179°
2026-05-08 01:08 35.02444 -89.97791 332 ft 17 kts 147°
2026-05-08 01:09 35.02416 -89.97646 329 ft 20 kts 89°
2026-05-08 01:09 35.02492 -89.97555 328 ft 17 kts 360°
2026-05-08 01:09 35.02918 -89.97567 328 ft 123 kts 359°
2026-05-08 01:09 35.04109 -89.97589 648 ft 211 kts 358°
2026-05-08 01:10 35.05658 -89.97635 2347 ft 222 kts 358°
2026-05-08 01:10 35.07245 -89.97758 3863 ft 236 kts 347°
2026-05-08 01:10 35.08769 -89.98651 4663 ft 254 kts 324°
2026-05-08 01:10 35.10220 -89.99976 5022 ft 264 kts 323°
2026-05-08 01:11 35.11705 -90.01344 5033 ft 268 kts 323°
2026-05-08 01:11 35.13162 -90.02722 5713 ft 265 kts 317°
2026-05-08 01:11 35.14163 -90.04552 7067 ft 259 kts 291°
2026-05-08 01:11 35.14498 -90.06705 8399 ft 258 kts 275°
2026-05-08 01:12 35.14556 -90.08917 9648 ft 260 kts 274°
2026-05-08 01:12 35.14612 -90.11167 10698 ft 268 kts 274°
2026-05-08 01:12 35.14625 -90.13544 11148 ft 295 kts 266°
2026-05-08 01:12 35.13971 -90.16073 11376 ft 330 kts 248°
2026-05-08 01:13 35.13216 -90.17867 11823 ft 343 kts 246°
2026-05-08 01:13 35.12163 -90.20438 12904 ft 347 kts 247°
2026-05-08 01:13 35.11101 -90.23092 14173 ft 347 kts 248°
2026-05-08 01:13 35.10028 -90.25756 15340 ft 350 kts 247°
2026-05-08 01:14 35.08932 -90.28421 16440 ft 353 kts 247°
2026-05-08 01:14 35.07816 -90.31118 17518 ft 358 kts 247°
2026-05-08 01:14 35.06684 -90.33852 18550 ft 362 kts 247°
2026-05-08 01:14 35.05543 -90.36603 19489 ft 361 kts 247°
2026-05-08 01:15 35.04426 -90.39298 20004 ft 361 kts 247°
2026-05-08 01:15 35.03258 -90.42127 20064 ft 384 kts 247°
2026-05-08 01:15 35.02031 -90.45104 20072 ft 398 kts 247°
2026-05-08 01:15 35.00761 -90.48167 20066 ft 400 kts 247°
2026-05-08 01:16 34.99524 -90.51141 20057 ft 400 kts 247°
2026-05-08 01:16 34.98281 -90.54128 20040 ft 399 kts 247°
2026-05-08 01:16 34.96983 -90.57248 20047 ft 397 kts 247°
2026-05-08 01:16 34.95730 -90.60258 20053 ft 397 kts 247°
2026-05-08 01:17 34.94479 -90.63266 20060 ft 396 kts 247°
2026-05-08 01:17 34.93248 -90.66223 20062 ft 396 kts 247°
2026-05-08 01:17 34.92003 -90.69210 20064 ft 395 kts 247°
2026-05-08 01:17 34.90770 -90.72207 20063 ft 394 kts 249°
2026-05-08 01:18 34.89948 -90.75358 20059 ft 386 kts 262°
2026-05-08 01:18 34.89558 -90.78610 20080 ft 391 kts 262°
2026-05-08 01:18 34.89102 -90.81912 20074 ft 395 kts 261°
2026-05-08 01:18 34.88607 -90.85199 20058 ft 394 kts 261°
2026-05-08 01:19 34.88100 -90.88471 20063 ft 393 kts 261°
2026-05-08 01:19 34.87591 -90.91738 20064 ft 392 kts 261°
2026-05-08 01:19 34.87083 -90.94998 19807 ft 389 kts 261°
2026-05-08 01:19 34.86582 -90.98228 19151 ft 386 kts 261°
2026-05-08 01:20 34.86092 -91.01396 18419 ft 384 kts 261°
2026-05-08 01:20 34.85603 -91.04558 17674 ft 365 kts 261°
2026-05-08 01:20 34.85151 -91.07457 17054 ft 333 kts 261°
2026-05-08 01:20 34.84733 -91.10146 16169 ft 316 kts 261°
2026-05-08 01:21 34.84331 -91.12742 15078 ft 309 kts 261°
2026-05-08 01:21 34.83935 -91.15300 13898 ft 307 kts 261°
2026-05-08 01:21 34.83538 -91.17865 12569 ft 307 kts 262°
2026-05-08 01:21 34.83144 -91.20404 11383 ft 305 kts 262°
2026-05-08 01:22 34.82748 -91.22946 10335 ft 312 kts 262°
2026-05-08 01:22 34.82339 -91.25588 9599 ft 320 kts 262°
2026-05-08 01:22 34.81927 -91.28228 9304 ft 312 kts 262°
2026-05-08 01:22 34.81524 -91.30792 9098 ft 303 kts 262°
2026-05-08 01:23 34.81136 -91.33260 9010 ft 289 kts 262°
2026-05-08 01:23 34.81032 -91.35592 9023 ft 267 kts 276°
2026-05-08 01:23 34.81229 -91.37782 8985 ft 254 kts 279°
2026-05-08 01:23 34.81473 -91.39892 8754 ft 250 kts 280°
2026-05-08 01:24 34.81719 -91.41958 8413 ft 250 kts 280°
2026-05-08 01:24 34.81972 -91.44058 8052 ft 251 kts 280°
2026-05-08 01:24 34.82230 -91.46186 7730 ft 251 kts 280°
2026-05-08 01:24 34.82487 -91.48295 7401 ft 251 kts 280°
2026-05-08 01:25 34.82742 -91.50370 7085 ft 251 kts 280°
2026-05-08 01:25 34.83003 -91.52503 6769 ft 251 kts 280°
2026-05-08 01:25 34.83257 -91.54579 6476 ft 251 kts 280°
2026-05-08 01:25 34.83518 -91.56702 6142 ft 250 kts 280°
2026-05-08 01:26 34.83779 -91.58801 5837 ft 250 kts 280°
2026-05-08 01:26 34.84046 -91.60892 5523 ft 249 kts 280°
2026-05-08 01:26 34.84319 -91.62976 5206 ft 249 kts 280°
2026-05-08 01:26 34.84598 -91.65026 4914 ft 248 kts 280°
2026-05-08 01:27 34.84887 -91.67096 4610 ft 248 kts 280°
2026-05-08 01:27 34.85181 -91.69162 4272 ft 248 kts 280°
2026-05-08 01:27 34.85479 -91.71227 4082 ft 243 kts 280°
2026-05-08 01:27 34.85776 -91.73243 4035 ft 243 kts 280°
2026-05-08 01:28 34.86080 -91.75292 4025 ft 248 kts 280°
2026-05-08 01:28 34.86384 -91.77374 4017 ft 249 kts 278°
2026-05-08 01:28 34.86480 -91.79463 4031 ft 254 kts 270°
2026-05-08 01:28 34.86470 -91.81742 4082 ft 281 kts 270°
2026-05-08 01:29 34.86446 -91.84061 3939 ft 264 kts 269°
2026-05-08 01:29 34.86424 -91.86214 3628 ft 245 kts 269°
2026-05-08 01:29 34.86405 -91.88242 3279 ft 228 kts 269°
2026-05-08 01:29 34.86393 -91.90110 2838 ft 220 kts 269°
2026-05-08 01:30 34.86392 -91.92057 2307 ft 215 kts 269°
2026-05-08 01:30 34.86400 -91.93807 2092 ft 208 kts 269°
2026-05-08 01:30 34.86408 -91.95556 1999 ft 204 kts 269°
2026-05-08 01:30 34.86418 -91.97288 1993 ft 204 kts 269°
2026-05-08 01:31 34.86213 -91.98988 1996 ft 204 kts 252°
2026-05-08 01:31 34.85748 -92.00693 1997 ft 206 kts 250°
2026-05-08 01:31 34.85278 -92.02337 1987 ft 203 kts 250°
2026-05-08 01:31 34.84819 -92.03935 1989 ft 189 kts 249°
2026-05-08 01:32 34.84429 -92.04882 1985 ft 188 kts 234°
2026-05-08 01:32 34.83669 -92.06129 1984 ft 180 kts 231°
2026-05-08 01:32 34.82637 -92.07635 1972 ft 168 kts 227°
2026-05-08 01:32 34.82123 -92.08348 1970 ft 163 kts 227°
2026-05-08 01:33 34.81363 -92.09394 1989 ft 158 kts 227°
2026-05-08 01:33 34.80662 -92.10355 1983 ft 155 kts 227°
2026-05-08 01:33 34.79937 -92.11348 1995 ft 156 kts 227°
2026-05-08 01:33 34.79231 -92.12316 1980 ft 148 kts 227°
2026-05-08 01:34 34.78559 -92.13237 1779 ft 142 kts 226°
2026-05-08 01:34 34.77909 -92.14134 1533 ft 141 kts 227°
2026-05-08 01:34 34.77274 -92.15039 1351 ft 140 kts 228°
2026-05-08 01:34 34.76644 -92.15969 1142 ft 143 kts 228°
2026-05-08 01:35 34.75991 -92.16858 952 ft 139 kts 226°
2026-05-08 01:35 34.75332 -92.17718 791 ft 138 kts 225°
2026-05-08 01:35 34.74677 -92.18568 630 ft 136 kts 226°
2026-05-08 01:35 34.74045 -92.19415 460 ft 134 kts 225°
2026-05-08 01:36 34.73426 -92.20220 290 ft 124 kts 224°
2026-05-08 01:36 34.72899 -92.20896 271 ft 86 kts 227°
2026-05-08 01:36 34.72587 -92.21294 272 ft 58 kts 226°
2026-05-08 01:36 34.72437 -92.21557 272 ft 31 kts 250°
2026-05-08 01:37 34.72439 -92.21688 271 ft 8 kts 327°
2026-05-08 01:37 34.72492 -92.21667 272 ft 9 kts 34°
2026-05-08 01:37 34.72538 -92.21613 272 ft 10 kts 45°
2026-05-08 01:37 34.72587 -92.21553 272 ft 11 kts 46°
2026-05-08 01:38 34.72641 -92.21485 272 ft 12 kts 46°
2026-05-08 01:38 34.72702 -92.21406 272 ft 13 kts 46°
2026-05-08 01:38 34.72761 -92.21331 272 ft 13 kts 46°
2026-05-08 01:38 34.72787 -92.21312 272 ft 0 kts 17°